[[{"header":{"parameterUnit":"m.s-1","parameterCategory":1,"la1":30.2991,"la2":30.254,"lo1":-89.0895,"lo2":-89.0444,"dy":0.0017,"dx":0.0017,"nx":28,"ny":28,"refTime":"2024-08-18T21:00:00:Z","depth":0,"parameterNumber":2,"parameterNumberName":"U-component_of_WINDS"},"data":[0,0,0,0,0,0,0,0,0,0,0,0,0,0,0,0,0,0,0,0,0,0,0,0,0,0,0,0,0,0,0,0,0,0,0,0,0,0,0,0,0,0,0,0,0,0,0,0,0,0,0,0,0,0,0,0,0,0,2.71,2.7101,0,2.7189,2.719,2.7191,2.7137,2.7134,2.7131,2.7129,2.7229,2.7234,2.7239,0,0,0,0,0,0,0,0,0,0,0,0,0,2.6893,2.6897,2.71,2.7101,2.7102,2.7188,2.719,2.7191,2.7137,2.7134,2.7131,2.7128,2.7227,2.7233,2.7239,0,0,0,0,0,0,0,0,0,0,0,0,0,2.6983,2.6898,2.71,2.7085,2.7085,2.7188,2.719,2.7191,2.7138,2.7134,2.713,2.7126,2.7225,2.7233,2.724,2.7365,0,0,2.7263,2.7267,0,0,0,0,0,0,0,0,2.6978,2.699,2.7086,2.7087,2.7086,2.7147,2.7153,2.725,2.7139,2.7118,2.7129,2.7124,2.7206,2.7215,2.724,2.737,2.7374,2.7264,2.7269,2.7272,2.7274,0,0,0,0,0,0,0,2.6972,2.6986,2.7135,2.7088,2.7088,2.7078,2.7086,2.7171,2.7183,2.712,2.7116,2.7127,2.7205,2.7233,2.7242,2.7376,2.7264,2.7271,2.7275,2.7278,2.7615,2.762,0,0,0,0,0,0,2.6965,2.6981,2.7132,2.7138,2.7021,2.7084,2.7094,2.7132,2.7182,2.7185,2.713,2.7124,2.7222,2.7233,2.7245,2.7397,2.7272,2.7279,2.7283,2.7611,2.7616,2.7621,0,0,0,0,0,0,2.6961,2.6979,2.7129,2.7059,2.7077,2.7092,2.7135,2.7136,2.7163,2.7189,2.7192,2.7156,2.7219,2.7235,2.7336,2.7399,2.7283,2.7289,2.7606,2.7613,2.7619,2.77,0,0,0,0,0,0,2.6955,2.6978,2.7023,2.706,2.7081,2.7215,2.7139,2.714,2.7176,2.7169,2.7214,2.7218,2.7217,2.7325,2.7343,2.7408,2.7295,2.76,2.7609,2.7617,2.7691,2.7708,2.7722,0,0,0,0,0,2.6948,2.7044,2.7026,2.7044,2.7137,2.7219,2.7231,2.7225,2.7181,2.7228,2.7245,2.7217,2.7389,2.7335,2.7356,2.7424,2.7596,2.7606,2.7616,2.7684,2.7705,2.7722,0,0,0,0,0,0,2.7017,2.7048,2.7029,2.7139,2.7176,2.7209,2.7269,2.7247,2.73,2.7292,2.7285,2.7296,2.7402,2.7423,2.7362,2.7549,2.7486,2.7501,2.7531,2.7551,2.7566,2.756,2.7302,0,0,0,0,0,2.7045,2.7105,2.713,2.7226,2.7245,2.7254,2.7289,2.7281,2.7321,2.7338,2.7362,2.7404,2.7468,2.751,2.757,2.7694,2.7705,2.7751,2.7766,2.7779,2.7792,2.7862,2.7883,2.7653,2.7653,2.7653,0,0,2.7103,2.7128,2.7167,2.724,2.7268,2.7334,2.7268,2.734,2.739,2.735,2.7446,2.7466,2.7513,2.7626,2.7677,2.7647,2.7858,2.7791,2.7801,2.7808,2.7874,2.7896,2.7915,2.766,2.7659,2.7658,0,0,2.7244,2.7268,2.735,2.7379,2.7422,2.7427,2.7447,2.7484,2.7495,2.7591,2.7562,2.7623,2.7732,2.7767,2.78,2.7955,2.7932,2.7975,2.8057,2.8125,2.8143,2.8159,2.8217,2.8237,2.7987,2.7988,2.7988,0,2.7313,2.7408,2.7396,2.7471,2.7505,2.7468,2.7554,2.7584,2.7645,2.7671,2.7635,2.7773,2.7802,2.7924,2.7961,2.7988,2.8013,2.797,2.814,2.8156,2.8171,2.8226,2.8248,2.7993,2.7992,2.7992,2.7991,0,2.7492,2.7559,2.7621,2.7678,2.7719,2.7799,2.7802,2.7846,2.7835,2.7845,2.7945,2.7978,2.8045,2.8073,2.8064,2.8195,2.8175,2.814,2.8078,2.8199,2.825,2.8271,2.8,2.7998,2.7997,2.7996,0,0,2.7679,2.7729,2.7752,2.7779,2.7823,2.7876,2.7956,2.8018,2.8057,2.8101,2.817,2.8263,2.8231,2.8268,2.8262,2.8321,2.8445,2.8279,2.828,2.8311,2.8595,2.8622,2.8646,2.8429,2.8433,2.8436,2.8591,0,2.7825,2.796,2.7952,2.8081,2.8145,2.8111,2.8181,2.8218,2.823,2.8288,2.8302,2.8369,2.832,2.8342,2.8399,2.8418,2.8502,2.8406,2.8496,2.8499,2.8487,2.8673,2.8702,2.8847,2.8611,2.8615,2.8617,0,2.8012,2.806,2.8195,2.8231,2.8257,2.832,2.8378,2.8432,2.8474,2.8479,2.852,2.8505,2.8589,2.8522,2.864,2.8574,2.8611,2.8626,2.8631,2.8641,2.8567,2.869,2.8893,2.8915,2.8648,2.8646,2.8644,0,2.8139,2.8237,2.833,2.8354,2.8398,2.8443,2.8464,2.8502,2.8541,2.8592,2.8618,2.8679,2.8714,2.8763,2.8766,2.8717,2.8886,2.8819,2.8895,2.8895,2.8933,2.8931,2.9147,2.8953,2.8953,2.8953,2.8952,0,2.8303,2.8387,2.8388,2.8446,2.854,2.8532,2.8627,2.8643,2.8677,2.874,2.8716,2.8776,2.8775,2.8838,2.8841,2.8939,2.8954,2.8963,2.8963,2.8966,2.8965,2.8991,2.8982,2.8958,2.8957,2.8956,2.8955,0,2.8461,2.8464,2.8564,2.8597,2.8608,2.8676,2.8706,2.8763,2.8772,2.8852,2.8871,2.8887,2.8959,2.8966,2.905,2.9053,2.9172,2.916,2.9157,2.9156,2.9232,2.9225,2.9473,2.9506,2.929,2.9292,2.9293,0,2.8566,2.863,2.867,2.8709,2.8732,2.8795,2.8834,2.8829,2.8871,2.8924,2.8975,2.9044,2.9099,2.9216,2.9237,2.9302,2.9294,2.9376,2.9304,2.9305,2.9298,2.9294,2.9302,2.9391,2.9393,2.9395,2.9397,0,2.8754,2.8753,2.8808,2.8865,2.8911,2.8957,2.8999,2.9033,2.9033,2.9083,2.9154,2.9197,2.9282,2.9353,2.9416,2.9441,2.9421,2.9419,2.944,2.9445,2.9441,2.9446,2.9197,2.9414,2.9412,2.9411,2.941,2.9409,2.889,2.8946,2.8983,2.9046,2.9077,2.9117,2.9172,2.9188,2.9247,2.9314,2.9308,2.9388,2.9431,2.9514,2.9544,2.9609,2.9581,2.9612,2.962,2.9628,2.9637,2.9429,2.962,2.962,2.9619,2.9619,2.9618,0,2.9079,2.91,2.9158,2.9218,2.9268,2.9241,2.9286,2.9332,2.9402,2.9442,2.9496,2.958,2.9648,2.9673,2.974,2.9788,2.978,2.9806,2.9803,2.981,2.9656,2.9632,2.9811,2.9811,2.9811,2.9811,2.9811,2.9811,2.9183,2.9276,2.9279,2.9389,2.9411,2.9487,2.9516,2.9554,2.9586,2.968,2.9735,2.9751,2.9786,2.9855,2.9917,2.9923,2.9951,2.9981,2.9983,2.984,2.982,2.9802,2.9779,2.9986,2.9986,3.0132,3.0133,3.0134]},{"header":{"parameterUnit":"m.s-1","parameterCategory":1,"la1":30.2991,"la2":30.254,"lo1":-89.0895,"lo2":-89.0444,"dy":0.0017,"dx":0.0017,"nx":28,"ny":28,"refTime":"2024-08-18T21:00:00:Z","depth":0,"parameterNumber":3,"parameterNumberName":"V-component_of_WINDS"},"data":[0,0,0,0,0,0,0,0,0,0,0,0,0,0,0,0,0,0,0,0,0,0,0,0,0,0,0,0,0,0,0,0,0,0,0,0,0,0,0,0,0,0,0,0,0,0,0,0,0,0,0,0,0,0,0,0,0,0,2.5639,2.5642,0,2.584,2.5842,2.5844,2.5828,2.5824,2.5821,2.5819,2.6024,2.6032,2.604,0,0,0,0,0,0,0,0,0,0,0,0,0,2.5238,2.5245,2.5639,2.5642,2.5644,2.584,2.5842,2.5845,2.5828,2.5824,2.5821,2.5817,2.6021,2.6031,2.6041,0,0,0,0,0,0,0,0,0,0,0,0,0,2.5423,2.5248,2.5639,2.5659,2.5663,2.5839,2.5842,2.5846,2.5829,2.5824,2.582,2.5815,2.6018,2.603,2.6042,2.621,0,0,2.608,2.6085,0,0,0,0,0,0,0,0,2.5412,2.5437,2.5654,2.5658,2.5663,2.5804,2.5776,2.5968,2.583,2.5766,2.5818,2.5813,2.5954,2.5972,2.6019,2.622,2.6229,2.6081,2.6089,2.6094,2.6098,0,0,0,0,0,0,0,2.5399,2.5429,2.5719,2.5657,2.5663,2.5657,2.5678,2.5812,2.5883,2.5771,2.577,2.5794,2.5956,2.6007,2.6024,2.6232,2.6081,2.6092,2.61,2.6104,2.6574,2.6579,0,0,0,0,0,0,2.5382,2.5418,2.5712,2.5725,2.5524,2.5668,2.5692,2.5763,2.5882,2.5895,2.5798,2.5793,2.5988,2.6009,2.6031,2.6232,2.6094,2.6106,2.6113,2.6569,2.6575,2.6581,0,0,0,0,0,0,2.5374,2.5409,2.5704,2.5571,2.5608,2.568,2.576,2.577,2.5821,2.5902,2.5914,2.5838,2.5986,2.6014,2.6164,2.6239,2.6111,2.6123,2.6563,2.6571,2.6578,2.6637,0,0,0,0,0,0,2.5362,2.5406,2.5472,2.5573,2.5616,2.5836,2.5765,2.5777,2.5843,2.5838,2.5943,2.5956,2.5984,2.6146,2.6177,2.6254,2.6132,2.6557,2.6567,2.6575,2.6629,2.6646,2.666,0,0,0,0,0,2.5348,2.5482,2.5475,2.5511,2.57,2.584,2.5864,2.5895,2.5849,2.5914,2.5965,2.5952,2.6226,2.6162,2.6196,2.6278,2.6552,2.6564,2.6575,2.6622,2.6642,2.666,0,0,0,0,0,0,2.5388,2.5495,2.5489,2.566,2.5741,2.5837,2.5921,2.5916,2.6012,2.6003,2.6036,2.606,2.6211,2.626,2.6186,2.6444,2.6383,2.6401,2.6406,2.6427,2.6442,2.6426,2.6143,0,0,0,0,0,2.5417,2.5523,2.561,2.5752,2.5793,2.585,2.5913,2.5928,2.6013,2.6048,2.611,2.6193,2.6296,2.6365,2.6465,2.6636,2.6656,2.6708,2.6724,2.6736,2.6752,2.684,2.6863,2.6618,2.6617,2.6617,0,0,2.5478,2.5549,2.5614,2.5762,2.5827,2.5933,2.5879,2.5996,2.6075,2.6065,2.6211,2.6259,2.6353,2.6513,2.6587,2.6558,2.6824,2.6751,2.676,2.6769,2.6854,2.6877,2.6898,2.6625,2.6624,2.6623,0,0,2.5642,2.5708,2.5831,2.5896,2.5994,2.603,2.6059,2.6156,2.6187,2.6333,2.6326,2.642,2.66,2.6666,2.6723,2.6906,2.6896,2.6938,2.7019,2.7105,2.7124,2.7142,2.7203,2.7225,2.6953,2.6953,2.6953,0,2.5705,2.5866,2.5895,2.6012,2.6075,2.607,2.6193,2.6254,2.638,2.6423,2.639,2.6611,2.6675,2.6847,2.6891,2.6939,2.6971,2.6926,2.7119,2.7137,2.7154,2.7212,2.7236,2.6958,2.6957,2.6957,2.6956,0,2.5936,2.6048,2.6136,2.6255,2.6329,2.6448,2.6493,2.6564,2.6572,2.661,2.6756,2.6832,2.6945,2.6987,2.6998,2.716,2.7139,2.7112,2.7051,2.7181,2.7236,2.7259,2.6964,2.6962,2.6961,2.696,0,0,2.6134,2.6265,2.6296,2.6348,2.6453,2.654,2.6657,2.6767,2.6824,2.691,2.7007,2.7157,2.7131,2.7196,2.7213,2.7288,2.7423,2.7252,2.7254,2.7278,2.7601,2.7619,2.7645,2.7417,2.7421,2.7425,2.7592,0,2.6306,2.6514,2.6541,2.6725,2.6826,2.682,2.6921,2.6995,2.7034,2.7124,2.7166,2.727,2.7231,2.7269,2.7343,2.7391,2.7488,2.738,2.7505,2.7509,2.7479,2.7675,2.7695,2.7849,2.7615,2.7618,2.7621,0,2.6536,2.6625,2.6819,2.6905,2.6949,2.704,2.7139,2.7227,2.7309,2.7331,2.7401,2.7407,2.7525,2.7459,2.762,2.7545,2.7598,2.7628,2.7635,2.7646,2.7571,2.7688,2.79,2.7922,2.7657,2.7654,2.7651,0,2.6655,2.6825,2.6961,2.7006,2.7112,2.7175,2.7222,2.73,2.7362,2.7449,2.7489,2.759,2.7644,2.772,2.7751,2.7701,2.7909,2.7847,2.7928,2.7927,2.7971,2.7967,2.8191,2.8009,2.8009,2.8008,2.8008,0,2.6844,2.6961,2.7015,2.7099,2.7229,2.7258,2.7385,2.7429,2.7498,2.7587,2.7589,2.7673,2.7711,2.78,2.7826,2.7952,2.7978,2.7997,2.8001,2.7995,2.7992,2.8029,2.8018,2.8014,2.8013,2.8012,2.8011,0,2.7,2.7041,2.7188,2.7275,2.7299,2.7391,2.7464,2.7543,2.7579,2.7693,2.7721,2.7777,2.7882,2.7921,2.8049,2.8065,2.8211,2.8208,2.8183,2.8183,2.826,2.8251,2.8513,2.8547,2.8346,2.8347,2.8349,0,2.7116,2.7206,2.73,2.736,2.7409,2.7506,2.7569,2.76,2.7665,2.7762,2.7829,2.7933,2.8017,2.8184,2.8235,2.8331,2.8329,2.8414,2.8344,2.8333,2.8326,2.8319,2.8326,2.8427,2.8429,2.8431,2.8432,0,2.7316,2.7331,2.7422,2.7519,2.7594,2.7672,2.7748,2.7796,2.7837,2.791,2.8016,2.8081,2.821,2.8311,2.8409,2.8455,2.845,2.8454,2.8477,2.847,2.845,2.8458,2.8215,2.8447,2.8446,2.8445,2.8444,2.8443,2.7454,2.7531,2.7609,2.7709,2.7768,2.7838,2.7915,2.7959,2.8048,2.8155,2.8167,2.828,2.8355,2.8486,2.8536,2.8623,2.86,2.8634,2.8643,2.865,2.8653,2.8438,2.8641,2.8641,2.864,2.864,2.864,0,2.7651,2.77,2.7791,2.7896,2.7973,2.7961,2.8042,2.8107,2.8207,2.8278,2.8359,2.8479,2.8576,2.8633,2.873,2.8788,2.8787,2.8812,2.8807,2.8817,2.8671,2.8639,2.8811,2.8811,2.8811,2.8811,2.8811,2.8811,2.7763,2.7892,2.7915,2.8072,2.812,2.823,2.8277,2.834,2.8396,2.8529,2.8609,2.8646,2.871,2.881,2.8897,2.8911,2.8945,2.8972,2.8983,2.8845,2.8828,2.8811,2.8781,2.898,2.898,2.9122,2.9123,2.9124]}]]